{"data":{"norad_id":62509,"epoch":"2026-09-21T16:32:42.394848Z","epoch_age_seconds":71771,"freshness":"FRESH","line1":"1 62509U 25003Y   26264.68937957  .00008699  00000+0  32514-3 0  9995","line2":"2 62509  43.0008 262.3754 0000558 312.4940  47.5865 15.27592635 96521","mean_motion":15.27592635,"eccentricity":5.58e-5,"inclination_deg":43.0008,"raan_deg":262.3754,"arg_perigee_deg":312.494,"mean_anomaly_deg":47.5865,"bstar":0.00032514,"rev_number":9652,"period_min":94.265969016013,"perigee_km":482.62841049196,"apogee_km":483.39411463806,"semimajor_km":6861.148262565,"source":"CELESTRAK","updated_at":"2026-09-22T09:00:49.620806Z"}}